{"data":{"norad_id":44476,"epoch":"2026-05-25T04:02:15.571392Z","epoch_age_seconds":50600,"freshness":"FRESH","line1":"1 44476U 19049B   26145.16823578  .00000031  00000+0  00000+0 0  9998","line2":"2 44476   0.0204 301.1452 0000631  11.0595  53.0668  1.00271163 24892","mean_motion":1.00271163,"eccentricity":6.31e-5,"inclination_deg":0.0204,"raan_deg":301.1452,"arg_perigee_deg":11.0595,"mean_anomaly_deg":53.0668,"bstar":0,"rev_number":2489,"period_min":1436.1058123959,"perigee_km":35784.108725682,"apogee_km":35789.429936861,"semimajor_km":42164.906331271,"source":"CELESTRAK","updated_at":"2026-05-25T13:38:14.337537Z"}}